Temp
78 80 84 85 77 76 68 70 74 76 78 84 85 80 81 83 79 74 89 89 86 90 87 84 80 80 80 80 80 79 79 79 79 79 79 79 79 80 79 79 79 80 81 81 81 81 81 81 81
80 81 84 80 75 71 67 73 72 76 79 81 83 84 83 79 87 88 91 87 86 85 86 87 80 80 80 80 79 79 79 79 79 79 79 79 79 79 79 79 80 80 81 81 81 81 81 80 80
80 80 83 75 70 67 67 73 74 78 80 80 82 86 83 79 87 89 89 86 86 85 85 85 80 80 80 79 79 78 78 78 79 79 79 79 79 79 79 79 79 80 81 81 81 81 80 80 80
84 85 78 73 66 68 69 74 76 79 82 84 80 79 86 88 84 86 87 87 87 87 88 82 79 80 79 79 79 78 78 78 79 79 79 79 79 78 78 79 79 80 81 81 81 80 80 79 79
81 80 71 66 65 70 74 76 76 77 77 81 82 78 80 89 88 88 87 88 88 88 88 88 79 79 79 79 79 78 78 78 78 79 79 79 78 78 78 78 79 80 80 80 80 80 79 79 79
78 76 68 64 65 70 74 76 77 78 80 82 81 79 81 90 86 87 89 89 89 88 87 87 81 79 79 79 79 78 78 78 78 78 78 78 78 78 78 78 79 79 80 80 80 79 78 78 78
73 72 63 64 64 68 73 77 77 76 78 79 81 77 83 88 87 88 88 89 89 89 88 88 89 84 79 78 78 78 78 77 77 77 78 78 78 78 78 78 78 78 78 78 79 78 78 78 78
75 72 64 64 64 65 74 77 77 77 77 85 85 77 78 86 89 92 90 87 88 89 89 87 87 89 87 88 78 78 78 77 77 77 77 77 78 77 77 77 77 78 78 78 78 78 77 77 77
74 69 63 64 65 68 75 73 80 80 78 80 82 82 86 88 90 91 89 88 88 86 86 87 87 86 87 88 86 79 78 78 77 78 77 77 86 85 84 81 78 78 78 78 77 77 77 77 77
74 68 64 69 71 70 72 72 75 76 76 77 80 85 86 86 85 86 87 89 89 87 86 87 85 86 86 84 85 84 86 86 85 84 83 84 84 84 85 82 77 77 78 77 77 77 77 78 87
69 67 68 70 72 71 71 72 75 74 73 76 73 78 82 83 83 82 85 87 88 90 87 90 85 84 85 83 85 86 84 85 84 83 83 83 84 83 83 84 84 83 80 85 84 84 85 85 86
67 69 70 72 71 69 70 72 72 73 75 78 79 79 81 82 82 82 82 84 86 89 90 88 87 84 82 82 83 86 84 80 81 80 82 82 82 80 77 81 84 82 85 83 84 86 84 84 84
69 69 70 71 69 69 70 71 71 72 77 77 78 79 79 79 81 83 82 82 82 81 85 86 86 84 84 78 84 84 85 82 80 79 80 84 80 77 76 76 79 83 85 83 83 84 84 84 84
68 67 68 71 71 71 69 71 70 76 75 77 76 77 79 78 80 80 82 81 79 79 79 82 83 82 82 81 82 82 83 84 80 78 79 82 81 74 74 74 79 82 84 84 84 84 83 84 85
67 66 67 69 69 70 71 68 68 76 74 73 74 75 76 77 78 78 78 77 78 78 77 76 78 83 80 80 82 82 82 83 80 79 80 81 80 75 74 75 81 82 83 81 81 81 82 82 84
64 63 61 69 68 69 70 62 70 76 73 72 71 73 73 75 75 77 77 76 77 77 75 76 79 80 80 80 82 83 84 83 81 82 81 82 81 79 73 72 76 82 82 82 82 82 82 82 82
62 57 58 62 69 66 66 62 70 75 73 69 70 71 72 73 75 75 76 76 75 75 73 73 75 77 80 80 81 81 80 80 83 83 82 81 81 81 77 75 72 74 79 81 81 81 80 81 82
55 56 58 57 66 65 63 62 69 73 71 68 69 69 69 69 71 72 74 74 74 73 72 71 73 75 77 81 78 78 78 80 81 81 82 81 80 80 78 79 77 73 72 75 81 78 82 81 82
59 56 56 61 65 60 61 61 65 70 68 67 67 66 67 67 71 73 73 73 72 71 70 69 69 71 77 74 73 76 76 80 80 80 79 80 79 79 78 80 78 77 70 71 78 79 77 80 81
58 56 57 60 61 59 61 60 65 67 64 64 64 65 65 67 69 70 71 71 71 70 69 69 68 69 73 80 80 81 81 81 82 81 79 80 80 79 78 78 78 78 78 73 71 76 79 80 82
60 56 56 55 60 62 58 58 59 63 65 64 65 65 67 66 66 68 69 69 71 70 69 68 68 68 71 77 78 77 77 78 78 78 79 79 79 80 78 77 76 76 77 78 73 70 74 78 80
55 59 58 56 55 50 57 48 55 60 61 61 63 65 66 67 69 69 69 69 69 70 72 70 69 69 71 75 77 75 78 75 78 80 81 80 78 78 78 76 75 74 73 75 75 76 74 75 73
57 60 58 56 53 49 52 48 54 57 58 62 62 64 66 69 68 69 70 70 71 72 71 71 69 69 71 73 76 77 75 77 78 78 77 76 77 78 79 77 73 72 73 72 72 73 72 74 66
60 58 58 50 50 44 47 47 51 56 59 62 62 64 66 68 69 69 71 73 72 72 71 71 69 68 70 73 74 75 74 70 75 76 77 79 80 79 78 78 76 73 71 70 72 73 72 72 73
59 54 44 43 44 42 48 46 51 59 61 62 61 63 66 68 69 68 69 71 71 70 69 69 69 69 69 71 72 73 73 72 74 75 78 78 79 79 77 77 76 77 75 74 70 69 69 71 72
54 52 45 33 38 42 51 42 54 59 61 62 64 63 65 66 68 68 68 69 71 68 68 67 66 66 70 70 71 73 73 76 75 74 76 78 78 77 75 75 75 76 73 72 70 66 64 63 61
51 48 53 44 46 38 46 49 57 58 58 61 61 62 62 64 65 66 67 68 67 67 64 66 65 64 69 71 71 71 71 71 73 74 74 76 75 75 74 73 71 70 67 64 64 60 59 61 62
56 57 43 44 31 32 43 44 46 53 55 60 60 59 60 61 63 65 66 66 66 65 64 64 63 65 68 70 72 72 71 71 71 72 71 70 68 66 69 69 68 66 64 61 60 59 60 58 58
53 50 49 45 41 33 34 43 55 55 57 56 57 59 59 59 61 62 63 66 65 65 60 58 64 65 67 69 70 71 71 69 69 68 66 65 65 66 67 65 63 62 60 59 57 56 55 55 54
53 50 49 37 37 39 37 37 60 58 56 57 59 59 61 61 61 63 64 65 64 64 59 55 57 65 67 69 69 70 70 68 67 65 67 66 66 67 66 62 60 59 58 57 55 56 54 53 51
MSLP
1011.02 1011.00 1010.86 1010.23 1010.13 1009.00 1008.95 1009.30 1009.27 1008.18 1007.51 1007.13 1007.17 1006.87 1006.41 1006.45 1006.45 1006.97 1007.39 1007.48 1007.90 1007.83 1008.34 1009.13 1009.55 1009.90 1010.35 1010.43 1010.43 1010.65 1010.80 1010.81 1010.90 1011.14 1011.44 1011.62 1011.78 1011.98 1012.25 1012.46 1012.56 1012.74 1012.90 1013.11 1013.27 1013.41 1013.61 1013.78 1013.90
1010.77 1010.72 1010.36 1009.85 1009.36 1008.62 1009.51 1009.79 1009.01 1008.73 1008.35 1007.76 1007.11 1006.73 1006.59 1006.91 1007.11 1007.04 1007.19 1008.05 1008.24 1008.44 1008.57 1008.79 1009.54 1009.77 1010.21 1010.40 1010.59 1010.77 1010.98 1011.10 1011.21 1011.32 1011.60 1011.83 1011.98 1012.19 1012.49 1012.70 1012.80 1012.86 1012.98 1013.14 1013.37 1013.55 1013.68 1013.84 1013.99
1010.53 1010.39 1009.78 1009.71 1009.80 1009.44 1009.72 1009.94 1009.49 1008.82 1008.44 1007.79 1007.09 1006.91 1007.29 1008.27 1007.89 1007.73 1008.17 1008.36 1008.45 1008.75 1009.00 1009.37 1009.70 1009.87 1010.24 1010.47 1010.71 1010.93 1011.09 1011.21 1011.40 1011.50 1011.68 1011.95 1012.13 1012.38 1012.67 1012.92 1012.96 1013.00 1013.07 1013.21 1013.45 1013.60 1013.76 1013.88 1013.97
1010.10 1009.96 1010.64 1010.05 1010.04 1010.62 1010.53 1010.31 1009.91 1008.78 1008.16 1007.93 1007.74 1007.47 1008.30 1009.15 1008.93 1008.64 1008.61 1008.55 1008.41 1008.62 1008.89 1009.58 1009.97 1010.21 1010.47 1010.72 1010.98 1011.18 1011.24 1011.43 1011.53 1011.62 1011.79 1012.03 1012.30 1012.51 1012.76 1013.03 1013.08 1013.08 1013.24 1013.35 1013.49 1013.66 1013.78 1013.88 1013.99
1010.33 1010.13 1010.11 1010.52 1010.81 1010.94 1010.82 1010.66 1010.23 1009.26 1008.85 1008.39 1007.95 1008.07 1008.45 1008.80 1009.08 1008.76 1008.70 1008.79 1008.72 1008.92 1009.11 1009.41 1009.86 1010.20 1010.46 1010.69 1010.95 1011.13 1011.30 1011.46 1011.61 1011.73 1011.93 1012.10 1012.36 1012.59 1012.82 1013.01 1013.14 1013.21 1013.32 1013.39 1013.53 1013.70 1013.78 1013.83 1013.91
1010.26 1010.50 1010.30 1010.58 1011.06 1011.20 1011.02 1010.98 1010.41 1009.80 1009.46 1008.84 1008.51 1008.57 1009.01 1009.27 1008.83 1008.76 1008.78 1008.82 1008.93 1009.07 1009.26 1009.46 1010.00 1010.30 1010.58 1010.77 1010.92 1011.14 1011.25 1011.37 1011.56 1011.66 1011.87 1012.04 1012.25 1012.60 1012.84 1013.04 1013.16 1013.26 1013.36 1013.44 1013.52 1013.69 1013.79 1013.84 1013.88
1010.29 1010.45 1011.14 1011.33 1011.28 1011.27 1011.33 1011.25 1010.59 1010.27 1009.77 1009.48 1009.61 1008.98 1009.17 1009.05 1009.43 1009.25 1009.05 1009.07 1009.21 1009.31 1009.45 1009.57 1009.74 1010.13 1010.52 1010.70 1010.94 1011.14 1011.31 1011.53 1011.66 1011.72 1011.80 1011.91 1012.11 1012.35 1012.73 1012.91 1013.04 1013.21 1013.37 1013.43 1013.48 1013.63 1013.75 1013.75 1013.79
1010.96 1010.99 1011.47 1011.75 1011.70 1011.77 1011.83 1011.46 1011.15 1010.65 1010.12 1010.05 1009.77 1009.38 1009.31 1009.53 1009.51 1009.24 1009.17 1009.29 1009.33 1009.41 1009.51 1009.75 1009.89 1009.94 1010.20 1010.31 1010.95 1011.22 1011.34 1011.44 1011.63 1011.82 1011.90 1012.04 1012.14 1012.32 1012.60 1012.86 1012.91 1013.07 1013.16 1013.28 1013.39 1013.54 1013.66 1013.62 1013.56
1011.47 1011.21 1011.54 1012.00 1012.05 1012.17 1012.15 1011.74 1011.24 1011.10 1010.72 1010.55 1010.45 1010.17 1010.01 1009.95 1009.71 1009.18 1009.01 1008.91 1009.08 1009.34 1009.56 1009.63 1009.72 1009.94 1010.10 1010.22 1010.46 1011.06 1011.30 1011.54 1011.63 1011.71 1011.87 1012.09 1011.87 1011.92 1012.07 1012.28 1012.55 1012.84 1012.92 1013.00 1013.17 1013.30 1013.40 1013.44 1013.31
1011.44 1011.82 1012.37 1012.66 1012.68 1012.54 1012.46 1012.18 1011.59 1011.21 1011.01 1010.72 1010.36 1010.26 1010.46 1010.19 1009.96 1009.68 1009.31 1008.86 1008.69 1008.82 1009.11 1009.42 1009.71 1009.77 1009.80 1010.23 1010.37 1010.65 1010.71 1010.89 1011.11 1011.23 1011.43 1011.57 1011.56 1011.75 1011.79 1011.98 1012.42 1012.55 1012.61 1012.68 1012.84 1012.92 1012.97 1013.08 1012.52
1012.36 1012.35 1012.95 1012.79 1012.88 1012.95 1012.63 1012.22 1012.01 1011.55 1011.02 1011.15 1011.16 1010.86 1010.31 1010.11 1010.07 1009.96 1009.67 1009.48 1009.16 1008.87 1008.88 1008.78 1009.17 1009.45 1009.64 1010.06 1009.99 1010.15 1010.53 1010.57 1010.77 1010.95 1011.15 1011.22 1011.41 1011.57 1011.79 1011.74 1011.87 1011.99 1012.19 1012.00 1012.10 1012.12 1012.13 1012.10 1012.26
1012.88 1013.20 1013.12 1012.99 1013.03 1013.01 1012.61 1012.43 1011.99 1011.92 1011.67 1011.79 1011.50 1011.31 1010.81 1010.26 1009.88 1009.75 1009.62 1009.41 1009.36 1009.06 1008.59 1008.68 1008.95 1009.25 1009.44 1009.56 1009.78 1009.65 1010.05 1010.47 1010.59 1010.81 1010.92 1010.92 1011.07 1011.40 1011.75 1011.51 1011.42 1011.65 1011.45 1011.52 1011.71 1011.54 1011.65 1011.83 1011.96
1013.00 1013.21 1013.26 1013.25 1013.21 1013.07 1012.89 1012.39 1012.15 1011.87 1011.83 1011.90 1011.62 1011.09 1010.73 1010.38 1010.09 1009.78 1009.74 1009.59 1009.36 1009.15 1008.78 1008.59 1008.66 1008.75 1008.91 1009.28 1009.18 1009.37 1009.44 1009.88 1010.15 1010.43 1010.54 1010.52 1010.93 1011.16 1011.55 1011.55 1011.52 1011.22 1011.07 1011.26 1011.27 1011.23 1011.33 1011.37 1011.41
1013.72 1013.58 1013.41 1013.28 1013.07 1012.86 1012.64 1012.13 1012.02 1011.57 1011.76 1011.46 1011.23 1010.78 1010.52 1010.29 1010.01 1009.73 1009.41 1009.24 1009.15 1009.07 1008.77 1008.64 1008.55 1008.42 1008.51 1008.78 1008.77 1008.85 1008.94 1009.05 1009.59 1009.92 1010.09 1010.02 1010.28 1010.85 1011.03 1011.46 1011.30 1010.88 1010.80 1010.77 1010.81 1010.89 1010.96 1010.92 1010.95
1013.74 1013.35 1013.30 1013.20 1013.19 1012.76 1012.48 1011.64 1011.45 1011.32 1011.67 1011.30 1011.07 1010.87 1010.62 1010.43 1010.25 1009.99 1009.79 1009.45 1009.27 1008.96 1008.69 1008.45 1008.32 1008.18 1008.27 1008.10 1008.37 1008.59 1008.74 1008.81 1009.30 1009.46 1009.69 1009.88 1009.77 1010.16 1010.54 1010.48 1010.29 1010.26 1010.32 1010.63 1010.68 1010.77 1010.77 1010.75 1010.60
1013.82 1013.79 1013.23 1013.06 1013.22 1013.01 1012.77 1011.09 1011.34 1011.20 1011.24 1010.89 1011.01 1010.95 1010.82 1010.62 1010.70 1010.31 1009.96 1009.58 1009.07 1008.81 1008.54 1008.09 1007.79 1007.55 1007.74 1007.71 1007.64 1007.87 1008.19 1008.46 1008.75 1008.81 1009.15 1009.30 1009.48 1009.73 1010.14 1010.00 1009.74 1009.34 1009.64 1009.99 1010.19 1010.22 1010.15 1010.13 1010.03
1014.12 1013.77 1013.58 1013.19 1013.14 1013.13 1012.78 1011.33 1011.00 1010.95 1010.98 1010.94 1010.96 1010.87 1010.85 1010.75 1010.49 1010.40 1010.04 1009.62 1009.22 1008.70 1008.21 1007.67 1007.51 1007.16 1006.78 1007.09 1007.57 1007.62 1007.71 1008.14 1008.04 1008.21 1008.29 1008.47 1008.76 1009.00 1009.52 1009.45 1009.30 1009.28 1009.14 1009.35 1009.58 1009.63 1009.76 1009.39 1009.34
1014.11 1013.94 1013.74 1013.47 1012.95 1013.01 1012.45 1011.74 1010.95 1010.49 1010.89 1011.04 1011.06 1011.03 1010.94 1010.85 1010.78 1010.68 1010.16 1009.73 1009.23 1008.70 1008.22 1007.61 1007.16 1006.92 1006.60 1006.55 1006.99 1007.55 1007.62 1007.52 1007.61 1007.77 1007.88 1008.02 1008.23 1008.48 1008.91 1008.96 1008.95 1009.05 1008.94 1008.94 1008.96 1009.12 1009.11 1009.13 1008.74
1014.42 1014.31 1013.86 1013.50 1013.48 1013.32 1012.37 1011.79 1011.13 1010.48 1011.01 1011.17 1011.33 1011.42 1011.32 1011.09 1010.98 1010.54 1010.01 1009.52 1008.86 1008.27 1007.65 1007.30 1006.90 1006.28 1006.37 1006.26 1006.59 1006.72 1006.63 1006.53 1006.91 1007.19 1007.34 1007.57 1007.98 1008.18 1008.32 1008.41 1008.52 1008.59 1008.64 1008.24 1008.22 1008.39 1008.51 1008.54 1008.58
1014.56 1014.36 1013.84 1013.73 1013.69 1013.60 1012.37 1011.49 1010.96 1010.84 1011.40 1011.79 1011.95 1011.93 1011.78 1011.35 1010.88 1010.46 1010.00 1009.50 1009.00 1008.52 1007.90 1007.07 1006.44 1006.06 1005.85 1005.41 1005.29 1005.54 1005.72 1006.18 1006.36 1006.69 1007.00 1007.21 1007.47 1007.62 1007.82 1007.78 1007.63 1007.72 1007.69 1007.75 1007.97 1007.60 1007.59 1007.72 1007.82
1014.14 1014.17 1014.06 1014.05 1013.61 1013.30 1012.66 1011.12 1011.05 1011.34 1011.64 1012.04 1012.21 1012.35 1012.18 1012.03 1011.69 1011.15 1010.55 1010.13 1009.49 1008.50 1007.77 1007.04 1006.29 1005.63 1005.36 1005.28 1005.26 1005.57 1005.93 1006.28 1006.34 1006.45 1006.59 1006.78 1007.01 1007.05 1007.09 1007.18 1007.16 1007.07 1007.07 1006.73 1007.22 1007.25 1006.99 1006.90 1007.18
1014.11 1014.38 1014.50 1014.24 1013.84 1012.94 1013.27 1011.33 1011.25 1011.37 1011.58 1011.90 1012.06 1012.11 1012.10 1011.92 1011.66 1011.38 1010.91 1010.32 1009.73 1009.06 1008.22 1007.22 1006.21 1005.43 1005.13 1004.88 1004.72 1005.06 1005.29 1006.14 1006.59 1006.14 1006.11 1006.36 1006.63 1006.56 1006.47 1006.48 1006.47 1006.50 1006.47 1006.33 1006.52 1006.32 1006.46 1006.78 1006.77
1014.48 1014.78 1014.64 1014.38 1013.93 1013.85 1013.06 1012.83 1011.35 1011.65 1011.26 1011.19 1011.74 1011.98 1012.00 1011.87 1011.74 1011.36 1010.88 1010.60 1010.11 1009.28 1008.45 1007.62 1006.74 1006.03 1005.46 1004.75 1004.24 1004.68 1005.10 1005.27 1006.37 1006.37 1006.26 1006.16 1006.07 1005.86 1005.73 1005.87 1006.05 1005.94 1005.81 1005.95 1005.98 1005.89 1006.05 1006.31 1006.20
1015.08 1014.92 1014.36 1014.87 1014.54 1013.84 1013.53 1013.35 1011.52 1011.25 1011.19 1011.26 1011.69 1011.88 1011.93 1011.82 1011.63 1011.38 1011.05 1010.37 1009.81 1009.40 1008.76 1007.98 1007.26 1006.53 1006.01 1005.23 1004.51 1004.22 1004.92 1004.85 1005.92 1006.01 1005.77 1005.35 1005.16 1005.41 1005.27 1005.32 1005.44 1005.58 1005.47 1005.38 1005.51 1005.57 1005.54 1005.63 1005.83
1014.98 1014.99 1014.53 1014.36 1014.14 1013.79 1014.02 1013.39 1011.47 1011.42 1011.51 1011.52 1011.63 1011.75 1011.88 1011.87 1011.41 1011.24 1010.89 1010.36 1009.95 1009.38 1009.17 1008.63 1007.90 1006.97 1006.40 1005.94 1005.34 1005.30 1005.38 1004.99 1005.27 1005.69 1005.25 1004.93 1004.82 1004.91 1004.96 1005.06 1004.96 1004.79 1004.83 1004.88 1005.00 1005.18 1005.10 1005.06 1005.28
1015.29 1015.66 1015.72 1015.35 1014.62 1013.89 1014.02 1012.54 1011.26 1011.66 1011.71 1011.77 1011.87 1012.16 1012.22 1012.00 1011.66 1011.24 1010.92 1010.63 1010.32 1010.06 1009.40 1009.43 1009.11 1008.41 1007.57 1006.79 1005.45 1005.20 1005.97 1005.41 1005.51 1005.71 1005.45 1005.10 1004.97 1005.00 1005.20 1005.02 1004.78 1004.57 1004.50 1004.50 1004.66 1004.77 1004.99 1005.11 1005.44
1015.73 1016.07 1016.55 1016.36 1015.73 1015.14 1013.09 1012.62 1012.01 1011.65 1011.84 1011.91 1011.97 1012.29 1012.38 1012.23 1011.90 1011.35 1011.05 1010.98 1010.77 1010.49 1010.39 1010.15 1010.15 1009.58 1008.46 1007.34 1007.03 1006.52 1005.76 1005.50 1005.48 1005.37 1005.43 1005.30 1005.28 1005.23 1005.17 1005.06 1004.80 1004.61 1004.75 1004.79 1004.77 1004.96 1005.18 1005.33 1005.70
1015.72 1016.27 1016.86 1017.14 1016.47 1014.74 1012.93 1012.52 1011.52 1011.47 1011.69 1011.80 1012.04 1012.50 1012.64 1012.54 1012.14 1011.56 1011.32 1011.24 1011.02 1011.02 1010.76 1010.29 1010.41 1010.09 1008.97 1007.61 1006.49 1005.90 1005.80 1006.07 1005.90 1005.83 1005.77 1005.80 1005.91 1005.80 1005.55 1005.35 1004.94 1004.78 1004.76 1004.97 1005.15 1005.05 1005.34 1005.71 1006.13
1015.82 1016.13 1016.83 1017.53 1017.20 1015.74 1013.92 1011.74 1011.74 1011.73 1011.83 1012.14 1012.49 1012.73 1012.85 1012.86 1012.54 1011.95 1011.76 1011.59 1011.27 1011.12 1011.07 1010.58 1010.84 1010.40 1009.30 1007.95 1007.20 1006.65 1006.37 1006.41 1006.24 1006.25 1006.29 1006.27 1006.06 1005.89 1005.60 1005.57 1005.40 1005.14 1005.12 1005.19 1005.30 1005.60 1005.78 1006.06 1006.44
1016.40 1016.37 1016.84 1017.17 1016.82 1016.46 1015.41 1012.21 1011.92 1012.06 1012.40 1012.79 1012.81 1012.86 1012.82 1012.89 1012.81 1012.42 1011.98 1011.87 1011.54 1011.47 1011.74 1011.67 1011.27 1010.65 1009.67 1008.56 1007.71 1007.09 1006.65 1006.64 1006.64 1006.81 1006.76 1006.63 1006.27 1006.07 1005.91 1005.71 1005.79 1005.60 1005.59 1005.66 1005.84 1005.95 1006.07 1006.57 1007.29
Wind_Speed
5 2 3 2 3 1 4 6 4 11 4 2 9 4 2 7 5 5 4 4 2 11 13 14 15 12 11 10 9 9 12 13 14 14 13 13 13 13 13 12 12 12 12 11 9 8 6 5 4
4 2 2 2 1 2 6 7 11 10 11 14 4 5 5 7 6 2 2 3 4 8 10 13 15 12 11 11 10 9 10 11 13 13 13 12 12 12 12 11 11 11 12 11 9 7 5 4 3
1 2 1 3 2 4 4 8 10 12 5 5 0 5 4 8 10 8 7 4 7 9 10 9 12 12 11 11 11 10 10 11 12 13 12 12 11 10 10 10 10 11 11 10 8 7 5 3 3
0 2 4 2 12 6 4 6 10 15 8 11 6 7 7 6 9 9 4 3 8 10 9 11 9 9 9 10 11 10 11 10 11 12 12 12 11 10 9 9 9 10 10 9 8 6 5 4 3
3 1 4 6 6 3 3 6 8 12 5 12 7 6 5 11 11 7 5 5 3 6 7 9 9 9 10 11 12 12 12 11 11 11 12 12 10 10 9 9 9 9 9 9 8 6 5 4 3
3 0 3 6 8 4 2 8 8 11 9 14 8 3 5 10 14 11 6 5 4 3 5 7 8 8 8 9 11 11 11 12 12 12 12 12 12 10 10 9 9 8 7 7 7 6 4 4 4
4 3 4 5 4 3 8 8 9 9 10 13 7 3 2 14 11 8 6 5 3 1 5 6 7 8 8 8 8 9 10 10 11 11 12 12 12 11 10 9 8 7 6 6 5 4 4 4 5
3 3 4 3 4 4 7 7 4 8 7 10 7 6 4 9 10 7 4 3 3 1 4 6 6 7 7 8 9 9 10 10 10 10 11 11 11 11 10 8 8 8 8 7 6 5 5 5 6
1 4 5 4 3 2 5 7 6 4 7 6 6 7 10 8 10 9 7 3 1 3 5 6 7 7 7 7 7 9 10 10 10 11 11 9 9 11 12 10 7 10 9 8 7 7 6 6 8
4 4 3 1 1 2 4 4 7 5 9 8 15 13 10 12 10 10 10 9 8 7 6 7 7 8 8 6 8 8 8 9 9 9 10 9 9 8 8 8 11 11 10 9 9 9 8 8 6
3 4 3 2 2 2 1 1 3 6 9 10 14 15 18 15 11 11 10 9 10 10 8 8 9 9 9 7 6 5 5 6 7 10 10 9 7 6 7 6 7 9 11 8 9 9 8 7 5
4 2 1 1 2 1 3 1 1 0 5 8 14 12 11 15 15 14 13 10 10 10 12 9 9 9 10 6 7 7 6 7 7 8 11 8 7 7 7 6 7 8 7 8 8 6 8 8 8
6 4 3 5 2 2 2 4 0 2 5 7 11 13 13 13 14 14 11 12 11 11 12 12 9 12 11 11 8 8 8 7 8 8 10 9 8 7 7 7 7 8 8 7 8 8 8 8 8
3 4 4 2 5 2 6 6 2 10 5 14 14 15 14 15 16 14 14 14 13 12 13 13 12 12 11 12 12 9 8 9 9 8 9 13 9 6 6 7 9 9 8 8 8 8 8 7 7
1 2 2 3 5 4 10 5 5 11 9 15 15 13 13 14 15 15 15 15 14 12 12 11 11 11 13 14 12 10 8 8 8 8 12 13 13 9 8 7 9 8 7 9 8 8 8 8 7
4 3 6 8 7 2 8 9 14 14 15 18 15 11 11 12 12 13 14 14 15 13 12 13 10 11 13 13 11 10 9 8 8 8 8 13 13 13 8 7 8 8 7 8 8 8 7 7 7
5 5 11 8 6 6 5 18 10 18 15 15 12 10 11 13 14 14 17 16 15 15 14 15 12 13 13 12 10 10 10 9 8 8 9 11 13 13 11 9 6 7 8 8 9 8 8 7 7
8 8 7 12 8 10 11 15 18 21 14 12 9 13 14 15 16 16 17 16 16 15 14 13 12 11 12 9 8 7 7 9 8 9 9 11 10 12 11 10 10 8 6 8 9 10 8 9 7
3 6 12 12 9 5 14 16 19 22 11 7 10 13 14 15 13 16 18 18 18 17 17 14 13 12 8 7 7 8 8 10 8 10 11 10 9 10 11 10 10 10 8 10 11 10 10 9 8
6 9 12 9 4 6 15 22 18 13 2 5 9 10 13 15 18 20 21 21 20 18 17 17 14 12 10 10 8 6 6 5 6 5 7 8 9 10 10 12 11 13 11 11 10 11 10 9 8
9 8 7 9 10 12 11 14 2 3 4 3 5 5 8 11 13 16 19 19 20 21 20 18 16 12 10 12 6 4 3 2 4 4 4 6 9 10 12 13 12 12 12 11 11 8 11 11 9
8 3 6 10 14 13 5 9 3 3 3 1 4 6 8 10 11 13 16 18 21 21 20 19 17 11 9 11 9 9 6 1 3 4 5 6 10 11 11 11 11 10 8 11 11 10 10 11 10
3 6 8 16 15 6 5 7 2 2 5 8 3 4 6 9 10 12 13 14 18 20 20 18 17 13 7 9 10 10 7 5 3 4 7 8 9 10 9 9 10 10 8 8 10 11 11 11 6
4 7 13 1 2 5 3 3 3 5 4 12 3 3 9 13 13 11 11 12 15 20 21 19 19 15 11 5 9 12 11 9 7 9 7 7 6 6 8 8 8 9 8 9 9 11 13 11 10
6 12 6 4 3 6 4 9 11 10 11 9 5 2 5 13 15 13 13 13 14 16 23 20 21 19 16 7 2 4 5 7 8 9 7 8 6 7 6 6 8 8 10 11 9 9 11 12 12
6 4 2 8 8 18 17 10 2 1 2 5 5 5 7 14 14 15 11 12 13 15 19 22 21 19 14 10 8 6 5 3 4 6 7 7 7 7 8 8 9 11 10 7 8 4 4 4 4
4 5 4 10 9 8 5 5 11 4 5 6 4 6 13 15 14 13 11 11 12 13 16 18 18 18 15 10 5 3 5 7 5 5 6 7 7 7 8 9 10 6 4 4 7 5 6 6 8
7 4 5 3 6 8 7 11 12 6 2 9 9 11 13 13 12 11 7 9 10 10 10 17 15 18 17 12 11 9 10 8 8 6 7 7 7 8 9 10 9 4 4 6 4 6 7 8 6
9 10 5 4 5 8 15 11 2 6 12 7 5 11 9 10 11 12 8 12 10 11 10 13 17 17 17 14 12 10 9 10 10 9 8 8 7 8 8 8 6 2 3 6 7 6 8 8 9
7 9 9 6 10 8 11 18 10 8 3 4 15 11 9 6 9 11 11 11 12 7 7 4 13 16 14 14 13 12 10 10 10 11 11 8 7 7 6 4 3 1 3 4 5 8 9 10 9
Wind_Direction
324 330 183 171 227 238 78 26 299 322 297 347 322 266 356 40 1 28 24 157 107 162 156 155 153 147 152 145 135 127 132 132 134 135 138 140 142 143 147 145 148 155 157 160 162 160 157 150 141
330 157 165 104 262 183 99 355 350 333 312 306 272 239 42 61 21 38 37 140 123 150 162 155 156 148 150 146 142 136 138 137 137 136 140 142 144 147 148 149 157 161 168 171 172 170 167 153 136
191 0 293 76 82 76 86 14 335 334 334 352 78 43 45 355 332 347 9 115 123 130 146 141 153 153 154 152 150 150 148 146 144 143 145 148 148 148 151 163 166 172 177 180 181 179 184 171 161
42 129 99 70 101 76 41 348 345 356 20 19 338 78 98 25 320 333 355 108 131 139 146 141 143 154 153 159 158 159 155 156 153 153 155 155 156 157 161 172 176 179 186 188 191 195 195 202 192
44 74 88 94 88 89 16 339 343 13 19 14 2 72 75 10 356 21 35 24 63 134 150 158 150 167 168 169 169 169 168 165 163 160 163 161 161 163 169 180 184 188 194 198 201 202 206 214 230
82 9 105 115 112 53 340 349 340 18 17 16 28 47 62 355 15 12 27 33 55 143 160 164 162 169 174 180 178 179 176 174 173 170 169 167 167 172 179 187 193 199 203 209 213 212 227 243 256
89 71 84 111 105 80 7 340 12 353 13 15 333 55 334 18 9 4 25 23 31 113 190 188 193 188 187 189 191 188 184 183 181 179 179 176 175 176 184 190 196 205 215 221 229 230 246 264 273
84 79 116 83 103 73 2 346 337 359 20 323 344 13 7 339 350 351 7 48 356 274 223 209 211 213 220 205 197 201 195 188 186 189 188 187 182 183 188 195 201 210 214 227 237 249 255 270 274
149 76 91 96 111 44 345 347 10 325 337 354 359 339 343 331 336 347 348 338 243 228 241 225 215 218 225 233 215 206 211 208 197 196 197 188 207 199 197 206 189 214 219 227 239 248 253 263 263
44 77 83 108 123 317 322 322 333 342 10 11 3 4 342 329 340 343 340 328 322 301 227 222 227 227 214 221 230 215 220 215 212 209 206 211 209 213 223 218 209 219 225 228 238 244 254 250 262
56 83 125 210 309 276 316 352 313 351 13 11 347 339 341 345 338 319 317 305 304 303 280 242 214 218 227 221 225 216 223 219 220 218 214 211 216 213 221 223 219 224 217 237 221 231 236 247 258
119 80 57 359 336 256 142 248 301 2 344 344 339 331 323 333 332 334 325 311 291 294 275 254 242 227 221 213 219 226 209 219 222 220 219 217 213 213 224 233 225 230 225 231 235 240 245 252 253
45 12 337 332 346 217 231 348 67 328 326 319 324 327 330 329 328 328 322 302 300 273 269 268 255 232 227 217 219 225 224 210 219 221 221 217 217 217 229 230 238 237 229 227 234 240 246 251 252
349 304 321 9 16 70 348 334 284 343 333 328 334 331 333 333 329 321 322 317 310 299 277 277 266 243 225 228 224 218 220 222 219 219 222 215 212 206 202 229 237 241 236 237 243 243 251 253 260
22 38 82 33 356 6 333 273 311 329 323 327 333 337 332 326 326 333 324 314 310 301 291 270 271 260 235 221 223 224 226 218 226 224 225 228 214 204 204 224 235 240 242 248 245 250 246 254 254
34 55 347 356 344 80 333 299 297 316 330 333 344 341 339 339 336 331 339 330 320 310 299 283 269 251 240 232 222 217 224 225 224 229 226 229 230 226 213 223 235 233 228 241 242 241 240 247 250
40 333 330 330 326 314 335 303 303 315 327 332 342 353 351 343 348 349 340 334 328 319 311 298 279 252 229 233 241 230 213 224 231 224 222 227 228 231 231 231 230 224 234 235 238 238 240 243 246
333 326 315 304 322 326 300 289 307 310 331 334 349 360 358 355 357 348 347 342 331 325 317 305 289 260 242 228 216 225 224 226 226 232 233 234 234 235 234 244 234 222 218 241 236 236 237 249 254
281 280 293 289 314 288 303 298 301 302 326 356 2 5 2 1 355 4 4 359 349 341 331 322 299 264 234 196 202 216 220 222 217 228 230 231 238 237 234 241 241 232 223 218 228 228 229 241 237
258 283 290 291 267 282 302 298 296 301 326 33 8 13 9 6 4 1 1 2 1 347 336 326 309 274 233 221 211 210 216 224 232 231 224 227 241 241 240 242 240 234 231 226 228 220 223 232 222
282 267 293 292 305 272 290 278 285 103 139 64 43 32 27 15 7 4 1 2 356 358 347 336 319 284 237 232 201 173 144 177 181 197 202 212 225 235 234 240 244 247 239 238 228 218 217 231 217
294 201 296 287 307 304 4 292 252 231 231 346 8 18 4 1 3 5 2 360 359 357 355 350 341 315 247 209 203 197 181 154 296 205 186 195 220 228 230 239 244 240 240 243 235 225 219 215 206
316 315 300 301 292 301 222 255 128 277 250 351 347 7 342 342 339 345 0 2 360 0 360 355 358 349 286 211 195 179 165 152 218 220 206 215 223 229 232 237 246 240 233 240 240 222 210 215 191
333 314 316 184 255 244 105 294 202 221 266 319 312 299 342 354 343 334 335 348 5 8 360 355 0 9 349 258 198 177 195 142 185 215 221 226 233 246 244 251 247 250 235 232 233 243 225 223 224
320 323 315 285 270 298 162 291 265 282 272 272 285 291 339 352 349 340 340 348 352 12 7 354 357 1 3 350 212 199 237 172 198 234 235 246 253 262 277 284 274 264 253 236 219 234 245 230 214
314 269 308 300 307 300 293 251 282 294 277 217 245 308 326 338 343 336 330 340 355 8 18 357 349 340 355 359 26 36 256 221 237 254 265 272 277 297 311 307 301 290 275 253 231 200 180 148 133
137 227 1 283 279 276 257 267 264 224 227 237 245 327 341 340 337 333 330 342 341 359 8 9 345 332 333 1 4 44 42 21 324 295 286 288 299 307 314 319 308 291 235 202 175 149 137 153 157
260 133 244 246 278 267 269 283 274 269 232 302 303 342 340 340 340 336 341 0 357 356 5 14 341 338 323 345 4 15 23 15 6 356 353 347 341 330 334 329 316 254 178 160 164 149 150 144 136
274 254 247 288 240 270 291 276 246 252 319 311 313 334 346 3 13 10 342 329 337 3 4 13 334 332 331 349 353 0 12 11 7 3 360 349 341 336 330 330 311 270 179 164 149 144 133 128 135
257 270 260 245 259 243 276 273 294 284 13 317 321 322 323 345 7 359 6 355 9 354 356 347 321 317 329 340 345 352 3 6 3 353 343 346 335 333 338 351 328 67 125 137 141 153 139 140 122